Fryeburg, ME

9:12 AM EST on January 17, 2018 (GMT -0500)
Eastern Slopes Regional

Weather History for KIZG - November, 2011

Change the Weather History Date:

Thursday, November 24, 2011

  Actual Average Record
Temperature  
Mean Temperature 24 °F -  
Max Temperature 37 °F 40 °F 61 °F (2014)
Min Temperature 12 °F 22 °F 0 °F (2000)
Degree Days  
Heating Degree Days 40    
Moisture  
Dew Point 21 °F    
Average Humidity 91    
Maximum Humidity 100    
Minimum Humidity 70    
Precipitation  
Precipitation 0.00 in - - ()
Sea Level Pressure  
Sea Level Pressure 30.09 in    
Wind  
Wind Speed 0 mph (West)    
Max Wind Speed 4 mph    
Max Gust Speed -    
Visibility 5 miles    
Events Fog    
Averages and records for this station are not official NWS values.
T = Trace of Precipitation, MM = Missing Value Source: NWS Daily Summary

Daily Weather History Graph

Daily Weather History Graph

Search for Another Location

Airport or City:

Trip Planner

Search our weather history database for the weather conditions in past years. The results will help you decide how hot, cold, wet, or windy it might be!

Date:

Astronomy

Nov. 24, 2011 Rise Set
Actual Time 6:49 AM EST 4:10 PM EST
Civil Twilight 6:17 AM EST 4:42 PM EST
Nautical Twilight 5:42 AM EST 5:18 PM EST
Astronomical Twilight 5:08 AM EST 5:52 PM EST
Moon 6:04 AM EST (11/24) 3:37 PM EST (11/24)
Length of Visible Light 10h 24m
Length of Day
9h 20m
Waning Crescent, 0% of the Moon is Illuminated
Nov 24
Waning Crescent
Nov 25
New
Dec 2
First Quarter
Dec 10
Full
Dec 17
Last Quarter

Hourly Weather History & Observations

Time (EST) Temp. Windchill Dew Point Humidity Pressure Visibility Wind Dir Wind Speed Gust Speed Precip Events Conditions
12:54 AM 19.0 °F - 17.1 °F 92% 29.99 in 10.0 mi Calm Calm - N/A   Clear
1:54 AM 16.0 °F - 14.0 °F 92% 30.01 in 10.0 mi Calm Calm - N/A   Clear
2:54 AM 16.0 °F - 14.0 °F 92% 30.02 in 10.0 mi Calm Calm - N/A   Clear
3:54 AM 14.0 °F - 12.0 °F 92% 30.04 in 10.0 mi Calm Calm - N/A   Clear
4:54 AM 12.9 °F - 10.0 °F 88% 30.04 in 10.0 mi Calm Calm - N/A   Clear
5:54 AM 12.9 °F - 10.0 °F 88% 30.08 in 10.0 mi Calm Calm - N/A   Clear
6:54 AM 12.0 °F - 8.1 °F 84% 30.09 in 10.0 mi Calm Calm - N/A   Clear
7:54 AM 15.1 °F - 12.9 °F 91% 30.11 in 10.0 mi Calm Calm - N/A   Clear
8:54 AM 21.0 °F - 19.9 °F 96% 30.12 in 10.0 mi Calm Calm - N/A   Clear
9:54 AM 27.0 °F - 25.0 °F 92% 30.12 in 10.0 mi Calm Calm - N/A   Clear
10:54 AM 32.0 °F - 26.1 °F 79% 30.10 in 10.0 mi Calm Calm - N/A   Clear
11:54 AM 35.1 °F - 27.0 °F 72% 30.08 in 10.0 mi Calm Calm - N/A   Clear
12:54 PM 37.0 °F 34.5 °F 28.0 °F 70% 30.08 in 10.0 mi Variable 3.5 mph - N/A   Clear
3:54 PM 33.1 °F - 32.0 °F 96% 30.10 in 10.0 mi Calm Calm - N/A   Clear
4:54 PM 28.9 °F - 28.0 °F 96% 30.11 in 10.0 mi Calm Calm - N/A   Clear
5:49 PM 28.4 °F - 26.6 °F 93% 30.10 in 1.5 mi Calm Calm - N/A   Clear
5:54 PM 27.0 °F - 25.0 °F 92% 30.13 in 1.5 mi Calm Calm - N/A   Clear
5:58 PM 28.4 °F - 26.6 °F 93% 30.10 in 3.0 mi Calm Calm - N/A   Clear
6:03 PM 28.4 °F - 26.6 °F 93% 30.10 in 2.5 mi Calm Calm - N/A   Scattered Clouds
6:06 PM 28.4 °F - 26.6 °F 93% 30.10 in 1.2 mi Calm Calm - N/A   Scattered Clouds
6:13 PM 26.6 °F - 26.6 °F 100% 30.11 in 1.0 mi Calm Calm - N/A   Mist
6:17 PM 28.4 °F - 26.6 °F 93% 30.11 in 1.5 mi Calm Calm - N/A   Scattered Clouds
6:22 PM 26.6 °F - 24.8 °F 93% 30.11 in 3.0 mi Calm Calm - N/A   Scattered Clouds
6:54 PM 27.0 °F - 25.0 °F 92% 30.14 in 10.0 mi Calm Calm - N/A   Clear
8:32 PM 24.8 °F - 21.2 °F 86% 30.09 in 2.5 mi Calm Calm - N/A   Partly Cloudy
8:38 PM 24.8 °F - 21.2 °F 86% 30.09 in 1.2 mi Calm Calm - N/A   Partly Cloudy
8:41 PM 24.8 °F - 21.2 °F 86% 30.09 in 0.8 mi Calm Calm - N/A   Mist
8:54 PM 21.9 °F - 21.0 °F 96% 30.12 in 0.2 mi Calm Calm - N/A Fog Light Freezing Fog
9:20 PM 23.0 °F - 21.2 °F 93% 30.09 in 1.0 mi Calm Calm - N/A   Mist
9:22 PM 23.0 °F 18.4 °F 21.2 °F 93% 30.09 in 2.0 mi West 3.5 mph - N/A   Overcast
9:29 PM 24.8 °F - 21.2 °F 86% 30.09 in 6.0 mi Calm Calm - N/A   Overcast
9:39 PM 24.8 °F - 21.2 °F 86% 30.09 in 2.0 mi Calm Calm - N/A   Overcast
9:54 PM 23.0 °F - 21.9 °F 96% 30.11 in 9.0 mi Calm Calm - N/A   Mostly Cloudy
10:04 PM 23.0 °F - 19.4 °F 86% 30.09 in 10.0 mi Calm Calm - N/A   Scattered Clouds
10:14 PM 23.0 °F - 21.2 °F 93% 30.09 in 10.0 mi Calm Calm - N/A   Mostly Cloudy
10:35 PM 21.2 °F - 21.2 °F 100% 30.08 in 1.5 mi Calm Calm - N/A   Overcast
10:38 PM 23.0 °F - 21.2 °F 93% 30.08 in 0.8 mi Calm Calm - N/A   Mist
10:50 PM 23.0 °F - 21.2 °F 93% 30.08 in 1.8 mi Calm Calm - N/A   Overcast
10:52 PM 23.0 °F - 21.2 °F 93% 30.08 in 3.0 mi Calm Calm - N/A   Overcast
10:54 PM 23.0 °F - 21.9 °F 96% 30.11 in 3.0 mi Calm Calm - N/A   Overcast
11:00 PM 23.0 °F - 21.2 °F 93% 30.08 in 1.8 mi Calm Calm - N/A   Overcast
11:07 PM 23.0 °F - 21.2 °F 93% 30.08 in 0.8 mi Calm Calm - N/A   Mist
11:19 PM 23.0 °F - 21.2 °F 93% 30.08 in 0.2 mi Calm Calm - N/A Fog Light Freezing Fog